Overview Statistics Trail Chart Weather Telemetry Raw packets
 

This is the latest recevied weather packets stored in our database for station/object K7OWW-2. If no packets are shown the sender has not sent any weather packets the latest 10 day(s).

<< 42 43 44 45 46 47 48 >>
Time Temp. Humidity Pressure Rain* Wind** Luminosity Snow
1787944140 22.78° C 41% 1013.1 hPa 0 mm - - -
1787943540 22.78° C 39% 1013.4 hPa 0 mm - - -
1787942940 22.22° C 42% 1013.5 hPa 0 mm - - -
1787942642 22.22° C 42% 1013.6 hPa 0 mm - - -
1787942340 22.22° C 42% 1013.6 hPa 0 mm - - -
1787941740 21.67° C 43% 1013.7 hPa 0 mm - - -
1787941140 21.11° C 45% 1013.7 hPa 0 mm - - -
1787940842 21.11° C 46% 1013.7 hPa 0 mm - - -
1787940540 20.56° C 47% 1013.8 hPa 0 mm - - -
1787939940 20° C 47% 1014 hPa 0 mm - - -
1787939340 20° C 49% 1014.2 hPa 0 mm - - -
1787939042 19.44° C 51% 1014.2 hPa 0 mm - - -
1787938740 18.89° C 52% 1014.3 hPa 0 mm - - -
1787938140 17.78° C 57% 1014.4 hPa 0 mm - - -
1787937540 17.78° C 57% 1014.5 hPa 0 mm - - -
1787937242 17.78° C 59% 1014.6 hPa 0 mm - - -
1787936940 17.22° C 59% 1014.7 hPa 0 mm - - -
1787936340 16.67° C 61% 1014.8 hPa 0 mm - - -
1787935442 15.56° C 64% 1014.9 hPa 0 mm - - -
1787935140 15° C 65% 1015 hPa 0 mm - - -
1787934540 15° C 67% 1015.1 hPa 0 mm - - -
1787933940 13.89° C 71% 1015.2 hPa 0 mm - - -
1787933340 12.22° C 77% 1015.3 hPa 0 mm - - -
1787932740 11.11° C 81% 1015.5 hPa 0 mm - - -
1787932140 9.44° C 86% 1015.6 hPa 0 mm - - -

* Rain latest hour (hover to see other rain measurements)
** Current wind speed in m/s (hover to see current wind gust speed)